Terug naar catalogus

TELKOM 2

ActiefCommunicatieGEO
NORAD 28902·PAYLOAD·🇮🇩 Indonesia

Gelanceerd Nov 16, 2005 vanaf Guiana Space Centre

Loading…

TLE

VersSource: Space-Track

Epoch: Sep 14, 2026, 13:21 UTC

1 28902U 05046A   26257.55651081 -.00000022  00000-0  00000-0 0  9994
2 28902   5.0037  74.7760 0007305 190.0118 195.3181  0.99144751 76128

Volg TELKOM 2 in realtime met AllMySat

Download on the App Store